Theta_e
283 282 281 280 280 281 281 281 280 280 280 280 279 279 280 280 279 279 279 280 279 279 279 279 279 279 278 278 278 278 279 279
284 283 282 281 280 280 280 280 280 280 280 280 280 280 280 279 279 279 279 279 278 278 278 278 277 277 277 277 277 277 277 278
284 283 281 281 280 279 279 280 280 280 280 280 280 280 279 278 279 279 278 278 277 276 276 276 276 276 275 275 276 276 276 276
283 282 282 280 280 279 280 280 281 280 280 279 279 279 278 278 278 277 276 276 275 275 274 274 274 274 274 275 275 275 275 275
282 282 281 280 280 280 280 280 280 280 279 279 279 278 277 277 276 275 274 274 273 273 273 273 273 273 274 274 274 274 275 274
283 281 280 279 279 280 280 280 280 279 279 279 279 277 276 275 274 273 273 272 272 272 271 271 271 273 274 274 274 273 273 273
283 282 280 280 280 280 279 279 279 279 279 278 277 275 274 273 272 272 271 270 270 270 269 269 270 273 275 275 273 273 272 271
283 282 282 280 281 280 279 278 277 276 275 274 274 273 272 271 270 270 269 269 268 268 268 267 268 272 275 275 273 272 271 270
284 282 281 281 279 279 278 277 276 275 273 272 272 270 269 269 268 268 267 267 266 266 266 267 267 272 273 274 272 271 270 270
282 282 279 279 279 277 276 276 275 274 273 272 271 268 268 266 266 266 266 265 264 266 265 264 264 269 272 272 271 270 269 270
279 278 277 277 277 275 274 273 274 274 273 271 269 265 265 266 265 265 264 265 265 264 264 263 263 267 271 272 271 269 270 271
278 278 278 276 274 274 273 273 273 271 270 268 267 265 264 263 264 262 261 263 260 261 262 262 263 264 270 272 272 271 271 272
277 277 277 275 274 273 272 272 270 268 267 265 263 265 263 259 260 259 259 259 258 258 260 263 264 267 270 273 274 275 272 271
276 276 275 273 273 273 272 269 267 265 263 261 261 262 261 258 259 261 259 258 259 261 261 262 265 266 270 272 273 275 273 274
272 272 273 270 271 273 268 267 263 261 261 261 260 261 260 263 262 260 259 259 259 259 260 262 263 266 268 269 271 274 274 272
273 273 274 269 268 266 266 264 262 261 262 261 260 260 261 262 262 262 262 261 257 259 261 261 265 266 272 274 273 273 272 265
271 270 269 265 264 263 262 263 262 261 261 261 261 261 261 261 261 265 268 269 271 272 272 269 271 272 273 274 274 273 271 261
270 267 264 263 263 262 261 261 261 259 261 261 261 261 260 259 258 258 260 265 267 269 271 271 270 272 272 273 272 268 265 257
262 260 259 260 261 261 259 257 256 256 259 259 259 259 258 258 258 257 255 255 256 261 264 267 269 269 271 270 265 257 257 255
259 257 258 257 255 253 254 255 253 255 256 257 256 256 257 257 257 256 255 255 254 255 259 261 264 267 267 265 256 254 255 256
Wind_Speed
10 8 6 6 6 7 7 7 7 6 5 6 7 7 7 6 7 6 5 5 6 7 8 8 8 8 8 7 7 7 6 6
10 8 8 6 7 7 7 8 8 7 6 7 7 6 6 6 5 5 5 6 7 7 7 8 8 8 8 8 8 10 10 9
12 10 9 9 8 9 8 8 8 8 6 6 6 5 5 5 5 5 5 5 4 5 5 6 7 8 8 9 8 10 12 12
9 11 11 10 9 10 9 10 8 7 7 6 6 5 5 5 5 4 4 3 3 4 5 6 7 8 7 7 10 10 11 11
8 11 10 10 11 10 10 9 8 8 7 7 6 6 5 4 4 3 3 4 4 4 5 6 7 8 8 10 10 11 11 12
10 10 10 10 10 9 9 9 8 8 8 7 6 6 5 4 3 3 3 3 3 4 4 6 7 6 10 10 11 12 13 13
9 8 11 13 12 10 10 10 8 9 9 7 6 6 5 4 3 3 3 1 2 3 4 5 5 12 14 14 11 13 13 13
9 9 9 11 11 12 11 8 9 7 6 7 7 6 5 4 3 2 2 2 3 3 5 6 7 13 16 16 10 12 12 13
6 6 7 6 7 6 7 8 8 8 8 7 7 5 5 4 2 1 1 2 3 4 5 6 8 15 17 17 11 11 12 13
6 6 5 7 6 6 6 6 7 9 9 8 7 6 5 4 3 2 1 2 2 3 4 7 8 16 17 16 11 11 13 13
7 5 6 6 7 7 7 7 10 9 9 8 7 6 5 4 4 3 1 3 3 4 5 7 8 15 17 15 8 10 10 12
7 8 9 7 7 7 6 11 7 7 7 7 6 6 4 4 2 2 2 2 3 6 6 7 9 11 16 17 10 9 10 9
7 8 7 6 7 7 10 6 8 8 8 7 6 4 4 4 2 1 1 3 4 4 6 5 8 11 14 17 19 19 11 12
8 8 6 7 9 8 6 9 9 8 7 5 5 4 5 4 3 2 1 2 4 5 6 6 6 7 16 20 20 20 14 11
6 7 8 7 8 8 8 9 9 7 7 6 5 4 4 3 3 2 2 3 4 4 6 7 7 7 7 9 8 13 11 13
8 8 11 6 6 5 8 9 8 6 5 5 4 4 4 4 4 4 4 5 4 5 7 6 6 6 15 14 9 8 10 7
7 7 5 4 6 6 6 8 8 6 5 5 4 4 3 3 4 8 11 13 16 18 14 4 12 18 18 19 19 17 19 3
7 6 5 6 6 6 6 6 6 5 5 4 4 4 4 3 3 4 4 10 12 13 15 13 16 17 17 18 17 15 10 2
3 3 3 4 4 4 5 5 5 5 6 4 4 3 3 4 4 3 3 3 5 6 11 14 14 14 15 14 11 4 4 2
6 5 5 4 3 2 4 5 5 4 3 3 3 3 3 3 3 3 4 5 5 5 7 7 13 14 10 10 1 3 5 5
Wind_Direction
191 189 180 181 173 167 167 150 150 140 129 122 123 122 119 107 95 88 76 58 44 30 25 20 12 7 358 352 342 340 339 330
189 184 184 177 179 177 171 163 165 164 161 148 144 125 106 96 91 82 66 38 35 20 10 4 358 354 347 345 340 338 332 330
189 177 180 189 185 185 182 179 183 176 166 151 137 134 123 113 98 80 64 47 31 14 4 356 351 342 340 336 333 330 328 327
176 191 194 192 189 193 191 194 183 170 165 163 163 156 138 124 112 90 78 79 29 24 10 357 347 335 332 329 329 323 318 315
187 200 197 193 197 196 200 196 178 177 176 176 174 166 151 134 128 112 81 53 23 17 3 351 339 328 339 331 325 318 315 311
205 206 199 197 201 201 204 188 183 183 189 188 167 153 147 143 124 110 84 56 7 3 355 347 332 333 330 325 319 315 312 309
210 199 201 203 202 199 202 197 178 194 198 170 161 150 160 163 160 159 129 77 21 2 340 333 324 323 322 321 316 312 307 307
206 207 200 196 195 199 200 177 189 189 174 167 160 165 170 171 185 156 77 21 1 344 334 325 314 314 320 318 309 305 304 304
213 208 207 183 187 178 164 181 184 187 174 167 164 167 169 180 180 162 98 6 341 323 313 314 308 315 318 316 312 303 298 300
206 198 179 190 186 171 172 172 172 191 186 176 165 168 179 189 189 164 98 309 292 294 301 300 300 311 317 318 310 301 295 292
193 182 182 191 163 162 187 175 203 192 181 158 157 168 183 189 197 153 205 286 306 301 299 291 292 304 312 315 296 292 289 284
182 191 203 163 155 187 167 207 194 143 142 149 159 171 174 184 177 159 280 303 291 302 301 285 281 286 308 307 301 290 289 291
189 212 203 166 165 191 204 176 150 148 153 157 159 183 165 171 194 233 271 300 306 293 291 273 277 288 296 303 305 309 306 297
203 218 202 185 185 196 210 153 149 148 153 163 168 178 173 179 211 244 209 283 296 299 305 305 302 285 288 299 303 307 307 302
183 224 239 201 199 210 151 149 146 155 167 171 181 186 194 203 207 214 252 263 272 283 282 282 285 270 288 282 278 293 310 331
198 223 242 177 196 164 152 146 157 163 169 179 182 196 204 220 234 238 225 210 220 237 246 261 266 275 292 311 311 314 332 12
224 227 237 164 160 158 147 153 151 166 176 188 190 200 207 224 264 267 271 276 278 282 280 248 288 302 304 309 316 342 334 19
226 217 176 165 163 157 154 147 162 165 173 179 189 204 206 219 232 273 302 304 296 288 287 294 293 299 306 312 325 351 346 327
95 73 81 87 90 118 133 139 160 185 193 191 194 198 196 207 226 226 246 276 301 297 298 288 291 300 304 323 354 328 333 290
94 85 104 121 132 153 145 159 166 175 204 202 202 209 213 215 226 231 242 251 246 287 293 290 298 299 318 326 273 285 298 297